星链-1630 (STARLINK-1630 )

导读

STARLINK-1630是美国太空探索技术公司SpaceX星链星座中的一员,于2020年8月18日发射升空。它属于星链低轨互联网星座,承担为全球提供高速卫星互联网接入服务的任务,运行在近地轨道,助力星链网络完成全球覆盖,是SpaceX批量部署星链卫星中的一颗,支撑星座通信服务能力构建。

Basic Information
目录编号:
46132
目录名称:
STARLINK-1630
国际标识:
2020-057R
轨道中心:
EARTH
卫星名称:
星链-1630
卫星全名:
星链-1630 (STARLINK-1630 )
卫星状态:
已陨落 最后检测时间 2025-01-26
发射日期:
2020-08-18 UTC
国别 :
美国 (US)
星等 :
--
Orbit Information
数据来源 国际轨道数据
星历时间: 2025-01-26T09:47:39+0800
轨道信息已过期508天
半长轴: 6535.997km
偏心率: 0.0009414
轨道倾角: 53.035°
近地点辐角 195.459°
升交点赤经 318.121°
平近点角 246.548°
近地点: 151.709km
远地点: 164.015km
周期: 87.645分钟
每日圈数: 16.429904
Detailed Information
固有亮度:
5
最大亮度:
2.5
卫星平台:
Starlink V1.0
覆盖范围:
全球
运营商:
太空探索技术公司
运营商所在国:
美国
制造商(研发单位):
太空探索技术公司
制造商所在国:
美国
使用方式:
暂无
Satellite Introduction
星链(Starlink)计划是由太空探索技术公司(SpaceX)提出的一个巨型低轨卫星互联网星座项目,计划在2019年至2024年间在太空搭建由约1.2万颗卫星组成的“星链”网络,其中1584颗将部署在地球上空550千米处的近地轨道,并从2020年开始工作。该卫星仍在工作。